Погода в Сколе

Украина / Львовская область     49°02′00″N   23°30′41″E
темп.,
°C
ветер,
м/с
пор.,
м/с
влажн.,
%
обл.,
%
осадки,
мм/ч
давл.,
гПа
погр.,
м
16 июня, ср
ср1600:00+11ссв1196100 0.1 101811
03:00+10с119674 0.1 101811
06:00+10ссв019681 0.0 101712
09:00+14св258539 0.0 1018517
12:00+19св46618 0.1 10181283
15:00+20св45588 0.1 10171482
18:00+19св45669 0.1 10171184
21:00+14св12948 0.3 101920
17 июня, чт
чт1700:00+12всв11974 0.0 102011
03:00+11ссв01975 0.0 102010
06:00+11в11971 0.0 102011
09:00+16всв25800 0.0 1021586
12:00+20всв455615 0.0 10211243
15:00+21всв455384 0.0 10201412
18:00+20всв5664100 0.0 10211201
21:00+16в388946 0.0 1021361
18 июня, пт
пт1800:00+13в11955 0.0 102211
03:00+13вюв11952 0.0 102211
06:00+13в11960 0.0 102211
09:00+19в26750 0.0 1021599
12:00+22в57611 0.0 10201134
15:00+24в56551 0.0 10191303
18:00+22в676611 0.0 10191103
21:00+18в310914 0.0 1020585
19 июня, сб
сб1900:00+14в11982 0.0 102117
03:00+13юв11970 0.0 102012
06:00+13юв11960 0.0 102012
09:00+19всв23731 0.0 1020367
12:00+23в565613 0.0 10191074
15:00+24всв56515 0.0 10181065
18:00+21в6764100 0.0 10181004
21:00+16всв229496 0.0 101835
20 июня, вс
вс2000:00+14в11974 0.0 101911
03:00+13юв11965 0.0 101910
06:00+12юв11951 0.0 101811
09:00+18всв11720 0.0 1018438
12:00+23всв225416 0.0 10171244
15:00+21в447423 1.8 1016765
18:00+21в35772 2.2 1016798
21:00+17всв22938 2.8 101640